Regional Weather Roundup
Issued by NWS

Home | Current Version | Previous Version | Text Only | Print | Product List | Glossary On
Versions: 1 2 3 4 5 6 7 8 9 10 11 12 13 14 15 16 17 18 19 20 21 22 23 24 25 26 27 28 29 30 31 32 33 34 35 36 37 38 39 40 41 42 43 44 45 46 47 48 49 50
000
ASUS43 KLSX 201810
RWRMO

WEATHER SUMMARY FOR MISSOURI
NATIONAL WEATHER SERVICE SPRINGFIELD MO
100 PM CDT FRI APR 20 2018

NOTE: "FAIR" INDICATES FEW OR NO CLOUDS BELOW 12,000 FEET WITH NO
       SIGNIFICANT WEATHER AND/OR OBSTRUCTIONS TO VISIBILITY.
       CURRENT SKY AND/OR WEATHER CONDITIONS ARE NOT AVAILABLE FOR
       CHILLICOTHE AND FARMINGTON.

MOZ001>031-035>038-043-044-053-054-201900-
...NORTHERN AND WESTERN MISSOURI...

CITY           SKY/WX    TMP DP  RH WIND       PRES   REMARKS
KANSAS CTY INT CLOUDY    57  28  33 SE15      30.39F
6HR MIN TEMP:  39; 6HR MAX TEMP:  59;

KANSAS C DTWN  CLOUDY    60  30  32 SE14G20   30.38F
6HR MIN TEMP:  40; 6HR MAX TEMP:  60;

LEE`S SUMMIT   CLOUDY    59  30  33 SE16G23   30.39F
6HR MIN TEMP:  36; 6HR MAX TEMP:  59;

ST JOSEPH      CLOUDY    59  30  33 SE17G25   30.40F
6HR MIN TEMP:  30; 6HR MAX TEMP:  60;

CHILLICOTHE      N/A     58  29  33 S12G22    30.43F
6HR MIN TEMP:  30; 6HR MAX TEMP:  58;

KIRKSVILLE     CLOUDY    57  25  29 E14       30.44F
6HR MIN TEMP:  32; 6HR MAX TEMP:  58;


$$
MOZ066>068-077>081-088>096-101>105-201900-
...SOUTHWEST MISSOURI...

CITY           SKY/WX    TMP DP  RH WIND       PRES   REMARKS
SPRINGFIELD    SUNNY     59  29  31 SE14      30.36F
6HR MIN TEMP:  37; 6HR MAX TEMP:  60;

JOPLIN         MOSUNNY   61  34  36 SE13G20   30.35F
6HR MIN TEMP:  37; 6HR MAX TEMP:  61;

BRANSON        MOSUNNY   57  28  33 E13G21    30.37F

$$
MOZ032>034-039>042-045>050-055>058-069>072-201900-
...CENTRAL MISSOURI...

CITY           SKY/WX    TMP DP  RH WIND       PRES   REMARKS
COLUMBIA       SUNNY     60  21  22 SE14G22   30.42F
6HR MIN TEMP:  37; 6HR MAX TEMP:  60;

JEFFERSON CITY CLOUDY    59  20  22 SE10G20   30.42F
6HR MIN TEMP:  31; 6HR MAX TEMP:  59;

ROLLA          SUNNY     58  22  24 E8        30.41F
6HR MIN TEMP:  31; 6HR MAX TEMP:  58;

SEDALIA        CLOUDY    59  30  33 E13       30.42F
6HR MIN TEMP:  37; 6HR MAX TEMP:  60;

WHITEMAN AFB   PTSUNNY   59  27  29 SE12G17   30.37F
WARRENSBURG    CLOUDY    59  28  31 E9        30.40F

$$
MOZ051-052-059>065-201900-
...EAST CENTRAL MISSOURI...

CITY           SKY/WX    TMP DP  RH WIND       PRES   REMARKS
ST LOUIS INTL  MOSUNNY   59  18  20 E14G22    30.46F
6HR MIN TEMP:  38; 6HR MAX TEMP:  59;

SPIRIT OF STL  MOSUNNY   61  22  22 E10       30.45F
6HR MIN TEMP:  29; 6HR MAX TEMP:  61;

ST CHARLES     SUNNY     59  23  25 E14G22    30.46F
6HR MIN TEMP:  38; 6HR MAX TEMP:  59;


$$
MOZ072>076-082>087-097>100-106>115-201900-
...SOUTH CENTRAL AND SOUTHEAST MISSOURI...

CITY           SKY/WX    TMP DP  RH WIND       PRES   REMARKS
CAPE GIRARDEAU FAIR      61  30  31 VRB5      30.42F
6HR MIN TEMP:  39; 6HR MAX TEMP:  61;

FARMINGTON     SUNNY     59  23  25 NE12      30.44F
6HR MIN TEMP:  34; 6HR MAX TEMP:  59;

POPLAR BLUFF   FAIR      60  27  28 E6G18     30.41F
6HR MIN TEMP:  41; 6HR MAX TEMP:  60;

WEST PLAINS    SUNNY     59  22  24 SE9G18    30.39F
6HR MIN TEMP:  34; 6HR MAX TEMP:  60;


$$




USA.gov is the U.S. government's official web portal to all federal, state and local government web resources and services.